date,City,No. Stations,Air Quality,Index Value,Prominent Pollutant
2018-02-15,Brajrajnagar,1.0,Moderate,138,PM2.5
2018-02-16,Brajrajnagar,1.0,Moderate,131,PM2.5
2018-02-20,Brajrajnagar,1.0,Poor,254,PM2.5
2018-02-21,Brajrajnagar,1.0,Moderate,187,PM2.5
2018-02-22,Brajrajnagar,1.0,Moderate,178,PM10
2018-02-23,Brajrajnagar,1.0,Poor,251,PM2.5
2018-02-24,Brajrajnagar,1.0,Poor,232,PM2.5
2018-02-25,Brajrajnagar,1.0,Poor,246,PM2.5
2018-02-26,Brajrajnagar,1.0,Moderate,140,PM2.5
2018-02-27,Brajrajnagar,1.0,Moderate,160,PM10
2018-02-28,Brajrajnagar,1.0,Moderate,123,CO
2018-03-01,Brajrajnagar,1.0,Moderate,171,PM10
2018-03-02,Brajrajnagar,1.0,Poor,217,PM2.5
2018-03-03,Brajrajnagar,1.0,Poor,280,PM2.5
2018-03-04,Brajrajnagar,1.0,Poor,248,PM2.5
2018-03-05,Brajrajnagar,1.0,Poor,272,PM2.5
2018-03-06,Brajrajnagar,1.0,Moderate,187,PM2.5
2018-03-07,Brajrajnagar,1.0,Moderate,198,PM2.5
2018-03-08,Brajrajnagar,1.0,Poor,207,PM2.5
2018-03-09,Brajrajnagar,1.0,Moderate,122,CO
2018-03-10,Brajrajnagar,1.0,Poor,241,PM2.5
2018-03-11,Brajrajnagar,1.0,Very Poor,314,PM2.5
2018-03-12,Brajrajnagar,1.0,Very Poor,334,PM2.5
2018-03-13,Brajrajnagar,1.0,Poor,289,PM2.5
2018-03-14,Brajrajnagar,1.0,Poor,286,PM2.5
2018-03-15,Brajrajnagar,1.0,Very Poor,337,PM2.5
2018-03-16,Brajrajnagar,1.0,Moderate,185,PM2.5
2018-03-17,Brajrajnagar,1.0,Moderate,150,PM2.5
2018-03-18,Brajrajnagar,1.0,Moderate,190,PM2.5
2018-03-19,Brajrajnagar,1.0,Moderate,181,PM2.5
2018-03-20,Brajrajnagar,1.0,Poor,232,PM2.5
2018-03-21,Brajrajnagar,1.0,Very Poor,301,PM2.5
2018-03-22,Brajrajnagar,1.0,Poor,209,PM2.5
2018-03-23,Brajrajnagar,1.0,Poor,221,PM2.5
2018-03-24,Brajrajnagar,1.0,Poor,214,PM2.5
2018-03-25,Brajrajnagar,1.0,Poor,211,PM2.5
2018-03-26,Brajrajnagar,1.0,Poor,211,PM2.5
2018-03-27,Brajrajnagar,1.0,Poor,252,PM2.5
2018-03-28,Brajrajnagar,1.0,Very Poor,331,PM2.5
2018-03-29,Brajrajnagar,1.0,Very Poor,313,PM2.5
2018-03-30,Brajrajnagar,1.0,Very Poor,307,PM2.5
2018-03-31,Brajrajnagar,1.0,Poor,234,PM2.5
2018-04-01,Brajrajnagar,1.0,Moderate,195,PM10
2018-04-02,Brajrajnagar,1.0,Moderate,123,CO
2018-04-03,Brajrajnagar,1.0,Moderate,125,PM2.5
2018-04-04,Brajrajnagar,1.0,Moderate,161,PM2.5
2018-04-05,Brajrajnagar,1.0,Moderate,123,CO
2018-04-06,Brajrajnagar,1.0,Moderate,121,CO
2018-04-07,Brajrajnagar,1.0,Moderate,120,CO
2018-04-08,Brajrajnagar,1.0,Moderate,118,CO
2018-04-09,Brajrajnagar,1.0,Moderate,136,PM2.5
2018-04-10,Brajrajnagar,1.0,Moderate,117,CO
2018-04-11,Brajrajnagar,1.0,Moderate,118,CO
2018-04-14,Brajrajnagar,1.0,Moderate,161,PM2.5
2018-04-15,Brajrajnagar,1.0,Moderate,133,PM10
2018-04-16,Brajrajnagar,1.0,Moderate,130,PM10
2018-04-17,Brajrajnagar,1.0,Moderate,179,PM2.5
2018-04-18,Brajrajnagar,1.0,Moderate,117,CO
2018-04-19,Brajrajnagar,1.0,Moderate,158,PM10
2018-04-20,Brajrajnagar,1.0,Poor,214,PM10
2018-04-21,Brajrajnagar,1.0,Moderate,115,CO
2018-04-22,Brajrajnagar,1.0,Moderate,175,PM10
2018-04-23,Brajrajnagar,1.0,Moderate,162,PM10
2018-04-24,Brajrajnagar,1.0,Moderate,123,PM10
2018-04-25,Brajrajnagar,1.0,Moderate,153,PM2.5
2018-04-26,Brajrajnagar,1.0,Poor,226,PM10
2018-04-27,Brajrajnagar,1.0,Moderate,142,PM10
2018-04-28,Brajrajnagar,1.0,Moderate,115,CO
2018-05-01,Brajrajnagar,1.0,Moderate,119,CO
2018-05-03,Brajrajnagar,1.0,Moderate,113,CO
2018-05-04,Brajrajnagar,1.0,Moderate,127,PM2.5
2018-05-05,Brajrajnagar,1.0,Moderate,123,PM10
2018-05-06,Brajrajnagar,1.0,Moderate,133,PM10
2018-05-07,Brajrajnagar,1.0,Moderate,152,PM10
2018-05-08,Brajrajnagar,1.0,Moderate,183,PM2.5
2018-05-10,Brajrajnagar,1.0,Moderate,167,PM10
2018-05-15,Brajrajnagar,1.0,Moderate,114,CO
2018-05-16,Brajrajnagar,1.0,Moderate,115,CO
2018-05-17,Brajrajnagar,1.0,Moderate,113,CO
2018-05-18,Brajrajnagar,1.0,Moderate,125,PM10
2018-05-19,Brajrajnagar,1.0,Moderate,112,CO
2018-05-20,Brajrajnagar,1.0,Moderate,149,PM2.5
2018-05-21,Brajrajnagar,1.0,Moderate,113,CO
2018-05-22,Brajrajnagar,1.0,Moderate,114,CO
2018-05-23,Brajrajnagar,1.0,Moderate,160,PM2.5
2018-05-24,Brajrajnagar,1.0,Moderate,112,CO
2018-05-25,Brajrajnagar,1.0,Moderate,112,CO
2018-05-26,Brajrajnagar,1.0,Moderate,112,CO
2018-05-27,Brajrajnagar,1.0,Moderate,111,CO
2018-05-28,Brajrajnagar,1.0,Moderate,112,CO
2018-05-29,Brajrajnagar,1.0,Moderate,113,CO
2018-05-30,Brajrajnagar,1.0,Moderate,112,CO
2018-06-05,Brajrajnagar,1.0,Moderate,107,CO
2018-06-06,Brajrajnagar,1.0,Moderate,104,CO
2018-06-07,Brajrajnagar,1.0,Moderate,105,CO
2018-06-08,Brajrajnagar,1.0,Moderate,106,CO
2018-06-09,Brajrajnagar,1.0,Moderate,106,CO
2018-06-10,Brajrajnagar,1.0,Moderate,117,PM2.5
2018-06-11,Brajrajnagar,1.0,Moderate,107,CO
2018-06-12,Brajrajnagar,1.0,Moderate,106,CO
2018-06-13,Brajrajnagar,1.0,Moderate,106,CO
2018-06-14,Brajrajnagar,1.0,Moderate,106,CO
2018-06-15,Brajrajnagar,1.0,Moderate,166,PM2.5
2018-06-16,Brajrajnagar,1.0,Poor,200,PM2.5
2018-06-17,Brajrajnagar,1.0,Moderate,168,PM2.5
2018-06-18,Brajrajnagar,1.0,Moderate,128,PM2.5
2018-06-19,Brajrajnagar,1.0,Moderate,105,CO
2018-06-20,Brajrajnagar,1.0,Moderate,106,CO
2018-06-21,Brajrajnagar,1.0,Moderate,107,CO
2018-06-22,Brajrajnagar,1.0,Moderate,107,CO
2018-06-23,Brajrajnagar,1.0,Moderate,108,CO
2018-06-24,Brajrajnagar,1.0,Moderate,107,CO
2018-06-25,Brajrajnagar,1.0,Moderate,107,CO
2018-06-26,Brajrajnagar,1.0,Moderate,106,CO
2018-06-27,Brajrajnagar,1.0,Moderate,106,CO
2018-06-28,Brajrajnagar,1.0,Moderate,105,CO
2018-06-29,Brajrajnagar,1.0,Moderate,106,CO
2018-06-30,Brajrajnagar,1.0,Moderate,107,CO
2018-07-01,Brajrajnagar,1.0,Moderate,109,CO
2018-07-02,Brajrajnagar,1.0,Moderate,106,CO
2018-07-03,Brajrajnagar,1.0,Moderate,108,CO
2018-07-04,Brajrajnagar,1.0,Moderate,106,CO
2018-07-05,Brajrajnagar,1.0,Moderate,101,CO
2018-07-06,Brajrajnagar,1.0,Moderate,101,CO
2018-07-07,Brajrajnagar,1.0,Moderate,103,CO
2018-07-08,Brajrajnagar,1.0,Moderate,103,CO
2018-07-09,Brajrajnagar,1.0,Moderate,101,CO
2018-07-10,Brajrajnagar,1.0,Moderate,103,CO
2018-07-11,Brajrajnagar,1.0,Moderate,103,CO
2018-07-12,Brajrajnagar,1.0,Moderate,103,CO
2018-07-13,Brajrajnagar,1.0,Moderate,104,CO
2018-07-14,Brajrajnagar,1.0,Moderate,100,CO
2018-07-15,Brajrajnagar,1.0,Satisfactory,98,CO
2018-07-16,Brajrajnagar,1.0,Moderate,101,CO
2018-07-17,Brajrajnagar,1.0,Moderate,103,CO
2018-07-18,Brajrajnagar,1.0,Moderate,100,CO
2018-07-19,Brajrajnagar,1.0,Moderate,101,CO
2018-07-20,Brajrajnagar,1.0,Satisfactory,96,CO
2018-07-21,Brajrajnagar,1.0,Good,47,PM10
2018-07-22,Brajrajnagar,1.0,Good,38,PM2.5
2018-07-23,Brajrajnagar,1.0,Good,27,PM2.5
2018-07-24,Brajrajnagar,1.0,Good,44,PM2.5
2018-07-25,Brajrajnagar,1.0,Satisfactory,59,PM10
2018-07-26,Brajrajnagar,1.0,Satisfactory,51,PM2.5
2018-07-27,Brajrajnagar,1.0,Satisfactory,57,PM10
2018-07-28,Brajrajnagar,1.0,Satisfactory,80,PM10
2018-07-29,Brajrajnagar,1.0,Satisfactory,69,PM10
2018-07-30,Brajrajnagar,1.0,Satisfactory,96,PM2.5
2018-07-31,Brajrajnagar,1.0,Satisfactory,80,PM2.5
2018-08-01,Brajrajnagar,1.0,Satisfactory,71,PM2.5
2018-08-02,Brajrajnagar,1.0,Satisfactory,80,PM2.5
2018-08-03,Brajrajnagar,1.0,Moderate,152,PM2.5
2018-08-04,Brajrajnagar,1.0,Moderate,142,PM2.5
2018-08-05,Brajrajnagar,1.0,Moderate,132,PM10
2018-08-06,Brajrajnagar,1.0,Satisfactory,99,PM10
2018-08-10,Brajrajnagar,1.0,Satisfactory,74,PM2.5
2018-08-11,Brajrajnagar,1.0,Moderate,115,PM2.5
2018-08-12,Brajrajnagar,1.0,Satisfactory,97,PM2.5
2018-08-13,Brajrajnagar,1.0,Satisfactory,63,PM2.5
2018-08-14,Brajrajnagar,1.0,Satisfactory,54,PM10
2018-08-15,Brajrajnagar,1.0,Good,39,PM2.5
2018-08-16,Brajrajnagar,1.0,Good,22,PM10
2018-08-17,Brajrajnagar,1.0,Good,28,PM10
2018-08-18,Brajrajnagar,1.0,Satisfactory,59,PM2.5
2018-08-19,Brajrajnagar,1.0,Good,40,PM2.5
2018-08-20,Brajrajnagar,1.0,Good,35,PM2.5
2018-08-21,Brajrajnagar,1.0,Good,28,PM2.5
2018-08-22,Brajrajnagar,1.0,Good,30,PM2.5
2018-08-23,Brajrajnagar,1.0,Satisfactory,55,PM10
2018-08-24,Brajrajnagar,1.0,Satisfactory,66,PM2.5
2018-08-25,Brajrajnagar,1.0,Satisfactory,85,CO
2018-08-26,Brajrajnagar,1.0,Satisfactory,54,PM2.5
2018-08-27,Brajrajnagar,1.0,Satisfactory,53,PM2.5
2018-08-28,Brajrajnagar,1.0,Good,49,CO
2018-08-29,Brajrajnagar,1.0,Satisfactory,61,PM2.5
2018-08-30,Brajrajnagar,1.0,Satisfactory,87,PM2.5
2018-10-18,Brajrajnagar,1.0,Moderate,136,PM10
2018-10-19,Brajrajnagar,1.0,Moderate,135,PM10
2018-10-20,Brajrajnagar,1.0,Moderate,122,PM10
2018-10-21,Brajrajnagar,1.0,Moderate,103,PM10
2018-10-22,Brajrajnagar,1.0,Moderate,130,PM10
2018-10-23,Brajrajnagar,1.0,Satisfactory,94,PM10
2018-10-24,Brajrajnagar,1.0,Satisfactory,94,CO
2018-10-25,Brajrajnagar,1.0,Moderate,103,PM10
2018-10-26,Brajrajnagar,1.0,Moderate,102,PM10
2018-10-27,Brajrajnagar,1.0,Satisfactory,90,PM10
2018-10-28,Brajrajnagar,1.0,Moderate,108,PM10
2018-10-29,Brajrajnagar,1.0,Satisfactory,94,PM10
2018-10-30,Brajrajnagar,1.0,Satisfactory,96,PM10
2018-10-31,Brajrajnagar,1.0,Satisfactory,74,PM10
2018-11-01,Brajrajnagar,1.0,Satisfactory,57,PM10
2018-11-07,Brajrajnagar,1.0,Moderate,176,PM2.5
2018-11-08,Brajrajnagar,1.0,Poor,257,PM2.5
2018-11-09,Brajrajnagar,1.0,Poor,241,PM2.5
2018-11-10,Brajrajnagar,1.0,Moderate,193,PM2.5
2018-11-11,Brajrajnagar,1.0,Poor,227,PM2.5
2018-11-12,Brajrajnagar,1.0,Poor,202,PM2.5
2018-11-13,Brajrajnagar,1.0,Moderate,179,PM2.5
2018-11-14,Brajrajnagar,1.0,Moderate,198,PM2.5
2018-12-06,Brajrajnagar,1.0,Poor,288,PM2.5
2018-12-07,Brajrajnagar,1.0,Poor,237,PM2.5
2018-12-08,Brajrajnagar,1.0,Moderate,191,PM2.5
2018-12-09,Brajrajnagar,1.0,Poor,213,PM2.5
2018-12-10,Brajrajnagar,1.0,Poor,227,PM2.5
2018-12-11,Brajrajnagar,1.0,Poor,202,PM2.5
2018-12-12,Brajrajnagar,1.0,Poor,230,PM2.5
2018-12-13,Brajrajnagar,1.0,Poor,249,PM2.5
2018-12-14,Brajrajnagar,1.0,Poor,277,PM2.5
2018-12-15,Brajrajnagar,1.0,Moderate,192,PM2.5
2018-12-16,Brajrajnagar,1.0,Moderate,136,PM2.5
2018-12-17,Brajrajnagar,1.0,Moderate,119,PM2.5
2018-12-18,Brajrajnagar,1.0,Satisfactory,58,CO
2018-12-19,Brajrajnagar,1.0,Moderate,119,PM2.5
2018-12-20,Brajrajnagar,1.0,Moderate,161,PM2.5
2018-12-21,Brajrajnagar,1.0,Moderate,195,PM2.5
2018-12-22,Brajrajnagar,1.0,Moderate,188,PM2.5
2018-12-23,Brajrajnagar,1.0,Moderate,176,PM2.5
2018-12-24,Brajrajnagar,1.0,Moderate,102,CO
2018-12-25,Brajrajnagar,1.0,Poor,207,PM2.5
2018-12-26,Brajrajnagar,1.0,Poor,207,PM2.5
2018-12-27,Brajrajnagar,1.0,Moderate,197,PM2.5
2018-12-28,Brajrajnagar,1.0,Moderate,159,PM2.5
2018-12-29,Brajrajnagar,1.0,Moderate,136,PM2.5
2018-12-30,Brajrajnagar,1.0,Moderate,185,PM2.5
2018-12-31,Brajrajnagar,1.0,Moderate,195,PM2.5
2019-01-01,Brajrajnagar,1.0,Poor,238,PM2.5
2019-01-02,Brajrajnagar,1.0,Poor,236,PM2.5
2019-01-03,Brajrajnagar,1.0,Poor,289,PM2.5
2019-01-04,Brajrajnagar,1.0,Poor,224,PM2.5
2019-01-05,Brajrajnagar,1.0,Poor,212,PM2.5
2019-01-06,Brajrajnagar,1.0,Poor,244,PM2.5
2019-01-07,Brajrajnagar,1.0,Poor,247,PM2.5
2019-01-08,Brajrajnagar,1.0,Poor,285,PM2.5
2019-01-09,Brajrajnagar,1.0,Poor,245,PM2.5
2019-01-10,Brajrajnagar,1.0,Poor,213,PM2.5
2019-01-11,Brajrajnagar,1.0,Poor,211,PM2.5
2019-01-12,Brajrajnagar,1.0,Poor,276,PM2.5
2019-01-13,Brajrajnagar,1.0,Very Poor,322,PM2.5
2019-01-14,Brajrajnagar,1.0,Very Poor,333,PM2.5
2019-01-15,Brajrajnagar,1.0,Poor,232,PM2.5
2019-01-16,Brajrajnagar,1.0,Moderate,184,PM2.5
2019-01-17,Brajrajnagar,1.0,Poor,208,PM2.5
2019-01-18,Brajrajnagar,1.0,Poor,274,PM2.5
2019-01-19,Brajrajnagar,1.0,Poor,201,PM2.5
2019-01-20,Brajrajnagar,1.0,Poor,218,PM2.5
2019-01-21,Brajrajnagar,1.0,Poor,206,PM2.5
2019-01-22,Brajrajnagar,1.0,Poor,256,PM2.5
2019-01-23,Brajrajnagar,1.0,Poor,240,PM2.5
2019-01-24,Brajrajnagar,1.0,Poor,234,PM2.5
2019-01-25,Brajrajnagar,1.0,Poor,204,PM2.5
2019-01-26,Brajrajnagar,1.0,Moderate,134,PM2.5
2019-01-27,Brajrajnagar,1.0,Moderate,111,CO
2019-01-28,Brajrajnagar,1.0,Moderate,200,PM2.5
2019-01-29,Brajrajnagar,1.0,Moderate,168,PM2.5
2019-02-05,Brajrajnagar,1.0,Poor,244,PM2.5
2019-02-06,Brajrajnagar,1.0,Poor,273,PM2.5
2019-02-07,Brajrajnagar,1.0,Poor,234,PM2.5
2019-02-08,Brajrajnagar,1.0,Poor,212,PM2.5
2019-02-09,Brajrajnagar,1.0,Moderate,118,PM2.5
2019-02-10,Brajrajnagar,1.0,Moderate,113,CO
2019-02-11,Brajrajnagar,1.0,Moderate,142,PM2.5
2019-02-12,Brajrajnagar,1.0,Poor,203,PM2.5
2019-02-13,Brajrajnagar,1.0,Poor,258,PM2.5
2019-02-14,Brajrajnagar,1.0,Very Poor,325,PM2.5
2019-02-15,Brajrajnagar,1.0,Poor,263,PM2.5
2019-02-16,Brajrajnagar,1.0,Moderate,112,CO
2019-02-17,Brajrajnagar,1.0,Moderate,134,PM2.5
2019-02-19,Brajrajnagar,1.0,Moderate,151,PM2.5
2019-02-20,Brajrajnagar,1.0,Moderate,177,PM2.5
2019-02-21,Brajrajnagar,1.0,Moderate,154,PM2.5
2019-02-22,Brajrajnagar,1.0,Poor,270,PM2.5
2019-02-23,Brajrajnagar,1.0,Moderate,172,PM2.5
2019-02-24,Brajrajnagar,1.0,Moderate,151,PM2.5
2019-02-25,Brajrajnagar,1.0,Moderate,154,PM2.5
2019-02-26,Brajrajnagar,1.0,Moderate,126,PM2.5
2019-02-27,Brajrajnagar,1.0,Moderate,128,PM2.5
2019-02-28,Brajrajnagar,1.0,Moderate,109,PM10
2019-03-01,Brajrajnagar,1.0,Moderate,108,CO
2019-03-02,Brajrajnagar,1.0,Moderate,150,PM2.5
2019-03-04,Brajrajnagar,1.0,Moderate,196,PM2.5
2019-03-05,Brajrajnagar,1.0,Moderate,156,PM2.5
2019-03-06,Brajrajnagar,1.0,Moderate,132,PM2.5
2019-03-07,Brajrajnagar,1.0,Moderate,137,PM2.5
2019-03-08,Brajrajnagar,1.0,Moderate,145,PM2.5
2019-03-09,Brajrajnagar,1.0,Moderate,155,PM2.5
2019-03-10,Brajrajnagar,1.0,Poor,236,PM2.5
2019-03-11,Brajrajnagar,1.0,Moderate,159,PM2.5
2019-03-12,Brajrajnagar,1.0,Poor,207,PM2.5
2019-03-13,Brajrajnagar,1.0,Moderate,190,PM2.5
2019-03-14,Brajrajnagar,1.0,Moderate,161,PM2.5
2019-03-15,Brajrajnagar,1.0,Moderate,110,CO
2019-03-16,Brajrajnagar,1.0,Moderate,110,CO
2019-03-17,Brajrajnagar,1.0,Poor,219,PM2.5
2019-03-18,Brajrajnagar,1.0,Moderate,109,CO
2019-03-19,Brajrajnagar,1.0,Moderate,112,PM2.5
2019-03-20,Brajrajnagar,1.0,Moderate,187,PM2.5
2019-03-21,Brajrajnagar,1.0,Moderate,121,PM2.5
2019-03-22,Brajrajnagar,1.0,Moderate,116,PM2.5
2019-03-23,Brajrajnagar,1.0,Moderate,112,PM2.5
2019-03-24,Brajrajnagar,1.0,Moderate,193,PM2.5
2019-03-25,Brajrajnagar,1.0,Poor,253,PM2.5
2019-03-26,Brajrajnagar,1.0,Poor,247,PM2.5
2019-03-27,Brajrajnagar,1.0,Moderate,113,PM2.5
2019-03-28,Brajrajnagar,1.0,Moderate,183,PM2.5
2019-03-29,Brajrajnagar,1.0,Poor,243,PM2.5
2019-03-30,Brajrajnagar,1.0,Poor,254,PM2.5
2019-03-31,Brajrajnagar,1.0,Poor,272,PM2.5
2019-04-01,Brajrajnagar,1.0,Moderate,150,PM2.5
2019-04-02,Brajrajnagar,1.0,Moderate,188,PM2.5
2019-04-03,Brajrajnagar,1.0,Poor,249,PM2.5
2019-04-04,Brajrajnagar,1.0,Poor,285,PM2.5
2019-04-12,Brajrajnagar,1.0,Moderate,169,PM2.5
2019-04-13,Brajrajnagar,1.0,Moderate,122,PM2.5
2019-04-14,Brajrajnagar,1.0,Moderate,182,PM2.5
2019-04-15,Brajrajnagar,1.0,Poor,251,PM2.5
2019-04-25,Brajrajnagar,1.0,Moderate,116,PM2.5
2019-04-26,Brajrajnagar,1.0,Moderate,118,PM2.5
2019-04-27,Brajrajnagar,1.0,Moderate,146,PM2.5
2019-04-28,Brajrajnagar,1.0,Poor,203,PM2.5
2019-04-29,Brajrajnagar,1.0,Poor,250,PM2.5
2019-05-01,Brajrajnagar,1.0,Moderate,103,CO
2019-05-04,Brajrajnagar,1.0,Moderate,105,CO
2019-05-09,Brajrajnagar,1.0,Poor,207,PM2.5
2019-05-10,Brajrajnagar,1.0,Moderate,170,PM2.5
2019-05-12,Brajrajnagar,1.0,Moderate,135,PM10
2019-05-13,Brajrajnagar,1.0,Moderate,112,CO
2019-05-14,Brajrajnagar,1.0,Moderate,110,CO
2019-05-22,Brajrajnagar,1.0,Moderate,112,CO
2019-05-25,Brajrajnagar,1.0,Moderate,131,PM10
2019-05-26,Brajrajnagar,1.0,Moderate,111,CO
2019-05-27,Brajrajnagar,1.0,Moderate,146,PM10
2019-05-28,Brajrajnagar,1.0,Moderate,114,CO
2019-05-29,Brajrajnagar,1.0,Satisfactory,74,PM10
2019-05-31,Brajrajnagar,1.0,Moderate,109,CO
2019-06-02,Brajrajnagar,1.0,Moderate,114,CO
2019-06-04,Brajrajnagar,1.0,Moderate,112,CO
2019-06-05,Brajrajnagar,1.0,Moderate,114,CO
2019-06-06,Brajrajnagar,1.0,Moderate,110,CO
2019-06-07,Brajrajnagar,1.0,Moderate,113,CO
2019-06-10,Brajrajnagar,1.0,Moderate,125,PM2.5
2019-06-12,Brajrajnagar,1.0,Satisfactory,78,PM10
2019-06-14,Brajrajnagar,1.0,Satisfactory,77,CO
2019-06-15,Brajrajnagar,1.0,Satisfactory,80,CO
2019-06-17,Brajrajnagar,1.0,Satisfactory,78,CO
2019-06-18,Brajrajnagar,1.0,Satisfactory,90,CO
2019-06-19,Brajrajnagar,1.0,Satisfactory,88,CO
2019-06-20,Brajrajnagar,1.0,Satisfactory,68,CO
2019-06-21,Brajrajnagar,1.0,Satisfactory,92,CO
2019-06-22,Brajrajnagar,1.0,Satisfactory,95,CO
2019-06-23,Brajrajnagar,1.0,Satisfactory,86,CO
2019-06-24,Brajrajnagar,1.0,Satisfactory,92,CO
2019-06-25,Brajrajnagar,1.0,Satisfactory,93,CO
2019-06-28,Brajrajnagar,1.0,Satisfactory,92,CO
2019-06-29,Brajrajnagar,1.0,Satisfactory,93,CO
2019-07-03,Brajrajnagar,1.0,Satisfactory,95,CO
2019-07-06,Brajrajnagar,1.0,Satisfactory,92,CO
2019-07-07,Brajrajnagar,1.0,Satisfactory,87,CO
2019-07-08,Brajrajnagar,1.0,Satisfactory,78,CO
2019-07-09,Brajrajnagar,1.0,Satisfactory,92,CO
2019-07-11,Brajrajnagar,1.0,Satisfactory,91,CO
2019-07-12,Brajrajnagar,1.0,Satisfactory,93,CO
2019-07-13,Brajrajnagar,1.0,Satisfactory,95,CO
2019-07-14,Brajrajnagar,1.0,Satisfactory,93,CO
2019-07-15,Brajrajnagar,1.0,Satisfactory,84,CO
2019-07-16,Brajrajnagar,1.0,Satisfactory,97,CO
2019-07-17,Brajrajnagar,1.0,Satisfactory,87,CO
2019-07-18,Brajrajnagar,1.0,Satisfactory,94,CO
2019-07-19,Brajrajnagar,1.0,Satisfactory,90,CO
2019-07-20,Brajrajnagar,1.0,Satisfactory,92,CO
2019-07-21,Brajrajnagar,1.0,Satisfactory,87,CO
2019-07-22,Brajrajnagar,1.0,Satisfactory,77,CO
2019-07-23,Brajrajnagar,1.0,Satisfactory,91,CO
2019-07-24,Brajrajnagar,1.0,Satisfactory,94,CO
2019-07-25,Brajrajnagar,1.0,Satisfactory,93,CO
2019-07-26,Brajrajnagar,1.0,Satisfactory,97,CO
2019-07-27,Brajrajnagar,1.0,Satisfactory,93,CO
2019-07-29,Brajrajnagar,1.0,Satisfactory,86,CO
2019-07-31,Brajrajnagar,1.0,Satisfactory,93,CO
2019-08-01,Brajrajnagar,1.0,Satisfactory,97,CO
2019-08-02,Brajrajnagar,1.0,Satisfactory,93,CO
2019-08-03,Brajrajnagar,1.0,Satisfactory,94,CO
2019-08-04,Brajrajnagar,1.0,Satisfactory,95,CO
2019-08-15,Brajrajnagar,1.0,Satisfactory,95,CO
2019-08-16,Brajrajnagar,1.0,Satisfactory,78,CO
2019-08-17,Brajrajnagar,1.0,Satisfactory,98,CO
2019-08-21,Brajrajnagar,1.0,Satisfactory,91,CO
2019-08-22,Brajrajnagar,1.0,Satisfactory,92,CO
2019-08-24,Brajrajnagar,1.0,Satisfactory,93,CO
2019-08-26,Brajrajnagar,1.0,Satisfactory,97,CO
2019-08-28,Brajrajnagar,1.0,Satisfactory,96,CO
2019-08-29,Brajrajnagar,1.0,Satisfactory,95,CO
2019-09-01,Brajrajnagar,1.0,Satisfactory,91,CO
2019-09-02,Brajrajnagar,1.0,Satisfactory,93,CO
2019-09-05,Brajrajnagar,1.0,Satisfactory,92,CO
2019-09-06,Brajrajnagar,1.0,Satisfactory,94,CO
2019-09-07,Brajrajnagar,1.0,Satisfactory,99,CO
2019-09-08,Brajrajnagar,1.0,Good,27,CO
2019-09-09,Brajrajnagar,1.0,Satisfactory,94,CO
2019-09-10,Brajrajnagar,1.0,Satisfactory,99,CO
2019-09-11,Brajrajnagar,1.0,Satisfactory,84,CO
2019-09-13,Brajrajnagar,1.0,Satisfactory,93,CO
2019-09-14,Brajrajnagar,1.0,Satisfactory,94,CO
2019-09-15,Brajrajnagar,1.0,Satisfactory,82,PM10
2019-09-16,Brajrajnagar,1.0,Satisfactory,95,CO
2019-09-17,Brajrajnagar,1.0,Satisfactory,98,CO
2019-09-18,Brajrajnagar,1.0,Satisfactory,95,CO
2019-09-19,Brajrajnagar,1.0,Satisfactory,93,CO
2019-09-20,Brajrajnagar,1.0,Satisfactory,95,CO
2019-09-21,Brajrajnagar,1.0,Satisfactory,96,CO
2019-09-22,Brajrajnagar,1.0,Satisfactory,98,CO
2019-09-23,Brajrajnagar,1.0,Satisfactory,97,CO
2019-09-26,Brajrajnagar,1.0,Satisfactory,94,CO
2019-09-27,Brajrajnagar,1.0,Satisfactory,99,CO
2019-09-28,Brajrajnagar,1.0,Satisfactory,99,CO
2019-09-29,Brajrajnagar,1.0,Satisfactory,96,CO
2019-09-30,Brajrajnagar,1.0,Moderate,101,CO
2019-10-01,Brajrajnagar,1.0,Moderate,101,CO
2019-10-02,Brajrajnagar,1.0,Satisfactory,99,CO
2019-10-03,Brajrajnagar,1.0,Satisfactory,98,CO
2019-10-05,Brajrajnagar,1.0,Moderate,101,CO
2019-10-06,Brajrajnagar,1.0,Satisfactory,96,CO
2019-10-07,Brajrajnagar,1.0,Satisfactory,100,CO
2019-10-08,Brajrajnagar,1.0,Satisfactory,99,CO
2019-10-12,Brajrajnagar,1.0,Satisfactory,99,CO
2019-10-13,Brajrajnagar,1.0,Satisfactory,100,CO
2019-10-14,Brajrajnagar,1.0,Satisfactory,98,CO
2019-10-15,Brajrajnagar,1.0,Moderate,119,PM2.5
2019-10-16,Brajrajnagar,1.0,Moderate,111,PM10
2019-10-17,Brajrajnagar,1.0,Moderate,105,PM10
2019-10-18,Brajrajnagar,1.0,Moderate,101,PM10
2019-10-19,Brajrajnagar,1.0,Satisfactory,99,CO
2019-10-20,Brajrajnagar,1.0,Satisfactory,96,PM2.5
2019-10-21,Brajrajnagar,1.0,Satisfactory,100,CO
2019-10-22,Brajrajnagar,1.0,Moderate,102,CO
2019-10-23,Brajrajnagar,1.0,Satisfactory,100,CO
2019-10-26,Brajrajnagar,1.0,Moderate,101,CO
2019-10-27,Brajrajnagar,1.0,Moderate,101,CO
2019-11-01,Brajrajnagar,1.0,Moderate,198,PM2.5
2019-11-02,Brajrajnagar,1.0,Moderate,190,PM2.5
2019-11-03,Brajrajnagar,1.0,Moderate,145,PM10
2019-11-04,Brajrajnagar,1.0,Poor,248,PM2.5
2019-11-05,Brajrajnagar,1.0,Moderate,194,PM2.5
2019-11-06,Brajrajnagar,1.0,Moderate,198,PM2.5
2019-11-07,Brajrajnagar,1.0,Moderate,175,PM2.5
2019-11-08,Brajrajnagar,1.0,Moderate,143,PM10
2019-11-09,Brajrajnagar,1.0,Moderate,119,PM10
2019-11-10,Brajrajnagar,1.0,Satisfactory,95,PM10
2019-11-11,Brajrajnagar,1.0,Satisfactory,97,PM10
2019-11-12,Brajrajnagar,1.0,Moderate,115,PM10
2019-11-13,Brajrajnagar,1.0,Moderate,127,PM10
2019-11-14,Brajrajnagar,1.0,Moderate,130,PM10
2019-11-15,Brajrajnagar,1.0,Moderate,124,PM10
2019-11-16,Brajrajnagar,1.0,Moderate,110,PM10
2019-11-17,Brajrajnagar,1.0,Moderate,129,PM2.5
2019-11-18,Brajrajnagar,1.0,Moderate,174,PM2.5
2019-11-19,Brajrajnagar,1.0,Moderate,131,PM10
2019-11-20,Brajrajnagar,1.0,Moderate,126,PM10
2019-11-21,Brajrajnagar,1.0,Moderate,133,PM10
2019-11-22,Brajrajnagar,1.0,Moderate,151,PM2.5
2019-11-23,Brajrajnagar,1.0,Moderate,200,PM2.5
2019-11-24,Brajrajnagar,1.0,Moderate,163,PM2.5
2019-11-26,Brajrajnagar,1.0,Moderate,174,PM2.5
2019-11-29,Brajrajnagar,1.0,Moderate,157,PM10
2019-12-02,Brajrajnagar,1.0,Moderate,122,PM2.5
2019-12-03,Brajrajnagar,1.0,Moderate,130,PM10
2019-12-04,Brajrajnagar,1.0,Moderate,165,PM2.5
2019-12-05,Brajrajnagar,1.0,Moderate,101,PM10
2019-12-06,Brajrajnagar,1.0,Moderate,122,PM10
2019-12-07,Brajrajnagar,1.0,Moderate,133,PM2.5
2019-12-09,Brajrajnagar,1.0,Moderate,141,PM2.5
2019-12-10,Brajrajnagar,1.0,Moderate,149,PM2.5
2019-12-11,Brajrajnagar,1.0,Poor,219,PM2.5
2019-12-12,Brajrajnagar,1.0,Poor,248,PM2.5
2019-12-13,Brajrajnagar,1.0,Moderate,145,PM2.5
2019-12-14,Brajrajnagar,1.0,Moderate,117,PM10
2019-12-17,Brajrajnagar,1.0,Satisfactory,99,PM10
2019-12-18,Brajrajnagar,1.0,Moderate,112,PM2.5
2019-12-20,Brajrajnagar,1.0,Satisfactory,94,PM10
2019-12-21,Brajrajnagar,1.0,Moderate,126,PM10
2019-12-22,Brajrajnagar,1.0,Moderate,122,PM10
2019-12-23,Brajrajnagar,1.0,Moderate,109,PM10
2019-12-24,Brajrajnagar,1.0,Moderate,126,PM2.5
2019-12-25,Brajrajnagar,1.0,Poor,241,PM2.5
2019-12-26,Brajrajnagar,1.0,Poor,231,PM2.5
2019-12-27,Brajrajnagar,1.0,Moderate,190,PM2.5
2019-12-28,Brajrajnagar,1.0,Satisfactory,73,PM10
2019-12-29,Brajrajnagar,1.0,Moderate,114,PM2.5
2019-12-30,Brajrajnagar,1.0,Moderate,148,PM2.5
2019-12-31,Brajrajnagar,1.0,Moderate,117,PM2.5
2020-01-01,Brajrajnagar,1.0,Moderate,121,PM2.5
2020-01-02,Brajrajnagar,1.0,Satisfactory,63,CO
2020-01-03,Brajrajnagar,1.0,Satisfactory,66,CO
2020-01-04,Brajrajnagar,1.0,Satisfactory,76,PM2.5
2020-01-05,Brajrajnagar,1.0,Moderate,144,PM2.5
2020-01-06,Brajrajnagar,1.0,Moderate,107,PM2.5
2020-01-07,Brajrajnagar,1.0,Moderate,117,PM10
2020-01-08,Brajrajnagar,1.0,Moderate,156,PM2.5
2020-01-09,Brajrajnagar,1.0,Moderate,115,PM2.5
2020-01-10,Brajrajnagar,1.0,Moderate,167,PM2.5
2020-01-15,Brajrajnagar,1.0,Poor,250,PM2.5
2020-01-16,Brajrajnagar,1.0,Poor,257,PM2.5
2020-01-17,Brajrajnagar,1.0,Poor,203,PM2.5
2020-01-18,Brajrajnagar,1.0,Moderate,169,PM10
2020-01-19,Brajrajnagar,1.0,Poor,208,PM2.5
2020-01-20,Brajrajnagar,1.0,Moderate,137,PM2.5
2020-01-21,Brajrajnagar,1.0,Moderate,150,PM2.5
2020-01-22,Brajrajnagar,1.0,Poor,214,PM2.5
2020-01-23,Brajrajnagar,1.0,Poor,245,PM2.5
2020-01-24,Brajrajnagar,1.0,Moderate,136,PM2.5
2020-01-27,Brajrajnagar,1.0,Moderate,101,PM10
2020-01-28,Brajrajnagar,1.0,Moderate,141,PM10
2020-01-29,Brajrajnagar,1.0,Moderate,180,PM2.5
2020-01-30,Brajrajnagar,1.0,Moderate,137,PM2.5
2020-01-31,Brajrajnagar,1.0,Satisfactory,86,PM10
2020-02-01,Brajrajnagar,1.0,Moderate,115,PM2.5
2020-02-02,Brajrajnagar,1.0,Moderate,112,PM10
2020-02-04,Brajrajnagar,1.0,Moderate,181,PM2.5
2020-02-05,Brajrajnagar,1.0,Moderate,111,PM2.5
2020-02-06,Brajrajnagar,1.0,Moderate,121,PM2.5
2020-02-07,Brajrajnagar,1.0,Moderate,130,PM2.5
2020-02-08,Brajrajnagar,1.0,Satisfactory,93,PM10
2020-02-09,Brajrajnagar,1.0,Satisfactory,94,PM10
2020-02-10,Brajrajnagar,1.0,Moderate,125,PM10